Temperature
26 25 25 25 23 22 24 24 25 25 24 24 24 23 22 21 20 18 19 19 20 19 19 19 19 19 19 19 19 19 19 19 19 19 19 18 18 18 18 18 18 18 18 18 18 18 18 18 18
26 26 25 25 23 22 24 25 25 25 24 24 23 23 22 20 19 18 18 19 20 20 19 19 19 19 19 19 19 19 19 19 19 19 19 19 19 19 18 18 18 18 18 18 18 18 18 18 18
27 26 25 23 23 23 24 25 25 25 25 24 24 23 22 21 19 19 19 20 20 20 20 19 19 19 19 19 19 19 19 19 19 19 19 19 19 19 18 18 18 18 18 18 18 18 18 18 18
27 26 25 23 25 26 26 26 26 25 25 24 23 22 22 21 20 20 20 20 20 20 20 20 19 19 19 19 19 19 19 19 19 19 19 19 18 19 18 18 18 18 18 18 18 18 18 18 18
27 26 24 24 26 27 27 27 26 25 24 23 23 22 21 21 21 20 20 20 21 20 20 20 20 20 19 19 19 19 19 19 19 19 19 19 19 19 19 18 18 18 18 18 18 18 18 18 18
27 25 24 24 27 27 27 27 25 24 24 23 22 22 21 21 21 21 21 21 21 20 20 20 20 20 19 19 19 19 19 19 19 19 19 19 19 19 19 19 18 18 18 18 18 18 18 18 18
27 24 25 26 26 26 27 27 25 24 24 23 23 21 21 20 21 21 21 21 21 20 20 20 20 20 19 19 19 19 19 19 19 19 19 19 19 19 19 19 19 19 18 18 18 18 18 18 18
29 24 26 26 26 27 28 27 26 25 25 24 23 22 21 21 21 21 21 21 20 20 20 20 20 20 19 19 19 19 19 19 19 19 19 19 18 18 18 18 19 19 19 18 18 18 18 18 18
29 24 25 26 26 27 28 27 26 26 25 24 24 23 22 22 21 21 20 20 20 20 20 20 20 19 19 19 19 19 19 19 18 18 18 18 18 18 18 18 18 18 18 18 18 18 18 18 18
28 25 26 28 27 27 28 27 27 25 25 24 23 23 22 22 21 21 21 20 20 20 20 20 20 19 19 19 19 19 19 18 18 18 18 18 18 18 18 18 18 18 18 18 18 18 18 18 18
28 27 28 29 29 29 28 28 27 25 23 23 23 23 22 22 22 21 21 21 21 20 20 20 19 19 19 19 19 19 19 19 18 18 18 18 18 18 18 18 18 18 18 18 18 18 18 18 18
29 29 30 29 30 29 28 27 26 25 24 24 24 23 23 22 22 22 21 21 21 20 20 20 19 19 19 19 19 19 19 19 19 18 18 18 18 18 18 18 18 18 18 18 18 18 18 18 18
29 29 29 29 29 29 28 27 26 25 25 24 24 24 23 23 22 22 22 21 21 20 20 20 20 19 19 19 19 19 19 19 19 18 18 18 18 18 18 18 18 18 18 18 18 18 18 18 18
29 29 29 29 29 29 27 27 26 25 25 24 24 23 23 23 23 22 22 22 21 21 20 20 20 20 20 19 19 19 19 19 19 18 18 18 18 18 18 18 18 18 18 18 18 18 18 18 18
30 28 28 28 28 28 27 26 25 25 25 24 24 23 23 23 23 22 22 22 22 21 21 21 20 20 20 19 19 19 19 19 19 19 19 19 18 18 18 18 18 18 18 18 18 18 18 18 18
28 26 26 27 27 28 26 24 25 25 25 24 24 24 23 23 23 23 23 22 22 21 21 21 20 20 20 20 19 19 19 19 19 19 19 19 18 18 18 18 18 18 18 18 18 18 18 18 18
25 25 26 27 27 27 26 24 25 25 25 24 24 24 24 23 23 23 23 23 22 22 21 21 20 20 20 20 19 19 19 19 19 19 19 19 18 18 18 18 18 18 18 18 18 18 18 18 18
25 26 26 26 27 27 25 24 25 25 25 24 24 24 24 24 23 23 23 23 22 22 21 21 21 20 20 20 19 19 19 19 19 19 19 19 18 18 18 18 18 18 18 18 18 18 18 18 18
27 27 26 27 28 27 25 24 25 25 25 24 24 24 24 24 24 23 23 23 22 22 21 21 21 20 20 20 20 19 19 19 19 19 19 18 18 18 18 18 18 18 18 18 18 18 18 18 18
27 27 26 27 28 26 25 25 25 25 25 25 24 24 24 24 24 23 23 23 22 22 22 21 21 21 20 20 20 20 19 19 19 19 19 19 19 18 18 18 18 18 18 18 18 18 18 18 18
27 27 27 27 27 26 26 24 24 25 25 25 25 24 24 24 24 23 23 23 23 22 22 22 21 21 20 20 20 19 19 19 19 18 18 19 19 18 18 18 18 18 18 18 18 18 18 18 18
27 28 28 28 25 24 25 23 23 24 24 24 24 24 24 24 24 24 24 23 23 23 22 22 22 21 21 20 20 20 19 19 19 19 19 18 18 18 18 18 18 18 18 18 18 18 18 17 17
27 29 28 28 25 23 23 23 23 23 23 24 24 25 25 25 25 24 24 24 24 23 23 22 22 21 21 20 20 20 19 19 19 19 19 18 18 18 18 18 18 18 18 18 18 18 17 17 17
29 27 25 23 22 23 23 23 23 22 23 24 25 25 25 25 25 25 25 24 24 23 23 22 22 21 21 20 20 20 19 19 19 19 19 18 18 18 18 18 18 18 18 18 17 17 17 17 17
27 23 22 23 21 22 23 23 23 24 25 25 25 25 25 25 25 25 24 24 24 23 23 22 22 21 21 21 20 20 20 19 19 19 19 18 18 18 18 18 18 18 18 17 17 17 17 17 17
26 23 22 23 22 22 23 23 24 25 26 27 26 26 26 25 25 25 25 24 24 23 23 23 22 22 21 21 20 20 20 19 19 19 19 18 18 18 18 18 18 18 17 17 17 17 17 17 17
26 24 23 21 22 22 22 23 24 25 25 25 26 25 25 25 25 25 25 24 24 24 23 23 22 22 21 21 20 20 20 19 19 19 18 18 18 18 18 18 18 17 17 17 17 17 17 17 17
27 25 21 21 22 22 23 23 23 24 24 24 24 25 25 25 25 25 24 24 24 24 23 23 22 22 21 21 20 20 19 19 19 19 18 18 18 18 18 18 18 17 17 17 17 17 16 16 16
27 26 22 20 20 21 22 23 24 23 23 24 24 25 25 25 25 25 24 24 24 23 23 23 22 22 21 21 20 20 20 19 19 19 18 18 18 18 18 17 17 17 17 17 17 16 16 16 16
26 25 22 22 22 20 21 22 25 24 24 24 25 25 25 25 25 24 24 24 23 23 23 22 22 22 21 21 20 20 20 19 19 18 18 18 18 18 17 17 17 17 16 16 16 16 16 16 16
Wind_Speed
6 5 3 1 5 7 9 7 10 10 7 9 13 12 12 9 7 9 5 12 12 9 11 13 14 15 15 15 15 16 16 17 17 16 16 17 17 17 17 17 17 17 17 17 17 17 17 16 16
4 3 1 3 7 8 7 9 15 15 15 15 15 16 13 10 10 11 7 11 12 11 11 13 15 15 15 15 15 15 15 16 16 15 16 16 16 16 16 16 16 16 16 16 16 16 16 15 15
3 2 3 4 5 8 8 11 16 16 13 11 8 8 7 8 10 7 10 14 11 10 12 14 15 15 15 14 14 14 14 14 14 14 14 15 15 15 15 15 15 15 15 15 15 15 14 14 14
2 2 4 5 7 8 12 14 16 17 12 10 10 8 6 7 7 12 16 15 13 9 11 14 15 15 14 14 13 13 13 13 13 13 13 14 14 15 15 15 14 14 14 14 14 14 13 12 12
2 4 5 4 7 9 12 16 16 13 8 11 13 10 7 6 17 19 17 15 13 8 10 13 15 14 14 13 13 12 12 12 12 12 12 12 13 14 14 13 13 13 13 13 12 12 11 10 10
3 4 5 5 9 10 12 15 16 18 17 15 14 11 6 12 17 17 16 14 13 11 10 12 14 14 13 13 12 12 11 11 11 11 11 11 11 11 12 12 12 11 11 11 11 10 9 9 8
3 4 4 7 11 11 11 12 14 16 15 11 12 9 7 11 14 16 15 13 11 11 10 9 12 12 12 12 11 11 11 10 10 10 9 10 10 10 10 10 10 10 10 9 9 8 8 7 6
5 5 4 5 10 8 10 9 12 16 11 14 10 9 9 12 15 16 14 12 11 9 7 7 9 10 10 10 11 10 10 9 9 8 8 8 8 8 8 8 8 8 8 8 7 7 6 5 5
4 5 4 6 9 8 11 13 9 10 12 8 6 9 13 17 18 16 12 9 9 9 6 6 7 8 9 9 9 10 9 8 8 7 7 6 5 4 5 6 7 7 7 6 5 4 4 3 2
5 5 6 6 9 10 13 15 10 8 11 10 12 12 14 16 17 16 14 12 10 10 9 7 7 8 8 7 8 7 7 7 6 6 6 5 5 4 5 5 6 6 5 5 5 4 3 3 2
5 5 4 6 8 11 12 10 8 12 10 15 19 18 15 15 14 14 13 12 11 11 10 8 7 8 7 5 7 5 5 6 6 7 7 6 5 4 4 4 4 5 5 4 4 5 4 4 4
5 4 5 6 7 10 10 8 8 9 11 16 17 17 14 14 13 13 12 11 10 10 9 8 7 6 6 6 5 5 5 4 5 6 7 6 4 3 4 4 5 5 4 4 5 4 4 4 5
6 5 6 7 9 10 12 11 10 9 14 16 16 15 14 13 11 10 11 10 10 9 8 8 8 7 5 4 3 4 4 5 6 6 7 7 4 3 4 4 5 6 6 5 4 4 3 3 4
3 7 6 7 8 9 14 11 9 11 16 16 16 14 13 13 11 9 10 10 9 9 9 7 8 7 6 4 3 2 3 4 4 5 6 7 6 4 3 2 3 4 5 6 5 4 3 3 3
4 7 6 4 6 6 12 7 9 15 16 16 15 14 13 13 12 12 12 11 10 10 9 8 8 6 6 4 3 3 3 3 3 3 4 5 5 4 3 2 2 3 5 5 4 3 2 2 2
4 6 2 2 4 4 9 6 8 12 14 13 13 14 13 12 13 13 13 11 10 10 9 8 8 6 5 4 3 2 2 2 2 3 3 3 3 4 2 2 2 3 3 2 2 2 1 2 1
5 3 2 3 2 4 6 6 9 11 13 12 12 13 13 12 12 12 13 12 11 11 9 7 7 7 6 4 3 3 2 2 2 3 3 3 3 3 2 1 1 1 1 1 2 1 2 2 2
2 1 2 4 3 4 5 6 10 11 12 12 11 11 12 13 12 13 12 11 11 10 9 8 7 6 5 3 2 1 0 0 1 2 3 3 2 1 2 1 1 1 1 0 1 1 2 2 3
5 3 3 5 4 4 6 7 11 11 11 12 11 11 11 12 11 11 12 12 11 9 9 8 8 6 4 3 2 2 1 1 0 1 3 3 2 2 2 0 0 1 1 2 2 2 2 2 1
3 4 3 3 3 3 4 4 8 11 14 15 15 14 13 10 9 11 11 11 11 11 10 9 9 7 6 4 3 3 2 1 1 1 1 2 2 2 2 1 1 1 1 1 2 2 1 2 1
1 5 6 4 3 4 5 2 4 6 7 9 12 13 13 14 14 12 12 11 11 11 11 10 9 8 7 5 3 2 2 2 1 1 1 1 1 2 1 1 1 1 1 2 2 2 3 2 1
4 6 6 6 5 0 4 3 7 6 6 10 11 12 13 13 13 12 13 12 12 12 11 9 9 8 6 6 5 4 3 2 2 1 1 1 1 1 1 1 1 1 1 1 2 2 2 2 2
6 4 2 4 5 2 1 3 7 3 7 10 12 13 13 14 15 15 14 14 12 12 11 9 8 7 6 6 6 5 3 3 2 1 1 0 2 2 1 0 0 1 1 1 1 1 1 2 2
4 5 7 6 5 0 5 4 6 6 10 10 11 12 13 13 14 14 12 11 10 10 9 9 9 7 6 6 6 5 5 4 3 1 1 0 1 2 2 1 0 1 1 1 1 1 1 1 1
5 7 4 5 4 4 3 3 8 10 10 11 12 12 13 13 13 12 11 11 11 11 10 10 9 7 7 6 6 5 5 5 4 3 2 1 0 1 2 1 1 1 1 1 1 1 1 0 1
5 10 9 6 5 4 2 4 7 8 7 6 8 9 11 12 12 13 13 13 12 12 11 10 10 8 7 7 6 5 4 4 3 3 2 2 1 0 1 1 1 1 2 2 1 1 1 1 1
5 5 9 8 3 0 3 4 6 3 3 5 7 8 10 12 12 12 12 12 12 11 11 11 10 8 7 7 6 4 4 4 3 2 2 1 0 1 1 2 2 2 2 2 2 2 2 2 2
8 8 6 6 5 2 3 3 4 3 4 5 8 10 10 10 11 11 11 11 10 10 9 9 9 9 7 7 6 5 4 4 3 3 3 2 2 2 2 3 3 3 3 3 3 2 2 3 3
3 4 6 5 6 6 3 6 7 9 8 8 8 9 10 11 11 11 11 10 9 9 9 9 8 8 7 6 5 5 4 4 4 3 3 2 2 3 3 2 3 3 3 3 3 3 4 4 4
7 7 7 5 3 5 5 6 7 8 8 10 9 9 10 10 11 11 11 10 10 10 9 9 8 8 7 7 7 6 5 5 4 4 3 3 3 3 3 3 4 4 4 4 4 4 5 5 5
Wind_Direction
186 185 173 98 59 64 84 87 93 84 68 66 75 80 79 68 97 122 146 132 129 122 117 112 109 107 104 101 98 96 95 94 92 92 92 93 95 95 95 97 100 102 105 106 106 107 107 107 107
179 173 124 53 82 86 85 98 91 97 115 104 85 84 79 76 91 114 128 135 129 125 121 117 113 111 108 105 104 102 100 99 97 96 96 96 98 97 97 99 103 105 107 108 108 108 108 108 108
188 178 86 68 100 119 116 110 108 108 109 99 94 71 71 103 111 122 139 137 125 120 122 122 118 114 112 110 108 107 104 103 101 100 99 100 101 101 101 104 106 106 108 109 110 109 110 110 110
142 75 53 80 113 129 127 127 119 109 88 81 93 77 72 107 117 133 138 134 126 123 127 126 122 119 117 115 114 112 109 107 106 104 103 103 104 105 106 107 109 108 110 110 110 110 111 110 110
76 73 61 89 110 113 122 125 121 110 99 98 100 101 90 95 123 134 137 134 132 131 131 130 127 124 122 119 118 116 115 113 111 109 108 106 106 108 110 111 112 112 113 114 115 115 115 113 114
70 78 84 100 108 108 117 119 109 106 113 112 110 109 110 131 134 140 139 138 138 138 136 135 132 129 126 125 123 121 119 118 116 114 113 113 112 112 115 115 117 118 119 119 119 120 121 119 117
120 100 117 121 112 118 129 126 122 127 130 130 128 109 127 144 144 141 139 137 137 139 139 138 137 135 134 133 132 130 127 124 124 123 121 121 120 120 120 121 123 124 127 128 128 127 125 124 123
146 102 89 115 119 128 135 120 131 134 126 133 132 126 149 158 144 137 134 136 138 141 146 146 145 144 141 143 144 142 139 137 137 136 133 129 126 126 129 130 133 135 138 141 142 142 142 139 139
110 91 123 145 132 132 127 115 115 111 126 141 117 128 147 144 137 133 131 133 144 150 159 158 157 157 156 156 155 153 153 155 157 157 153 143 131 133 141 147 147 149 152 156 161 165 172 172 177
107 125 169 169 145 139 132 129 125 108 110 107 111 123 135 137 138 141 148 152 159 165 175 172 172 173 173 168 162 169 171 174 179 180 172 163 165 175 170 176 175 171 172 180 193 208 221 220 235
113 134 143 134 137 134 129 126 114 120 127 141 142 145 143 141 143 148 154 158 164 167 170 171 172 174 175 170 166 180 186 185 192 193 184 181 183 194 194 189 194 196 201 212 225 236 241 239 241
99 116 120 118 117 128 131 125 116 131 153 153 148 147 146 146 149 153 155 158 159 157 162 165 159 158 165 162 168 176 185 191 195 197 185 172 167 185 192 200 207 206 211 218 227 232 235 240 243
99 97 91 96 102 112 115 123 120 129 140 145 145 146 147 151 152 155 152 151 149 148 152 156 153 149 147 145 167 163 175 184 188 184 184 176 166 172 184 206 209 212 211 213 222 224 231 239 242
131 108 102 101 101 109 114 119 113 141 145 148 151 155 156 157 158 152 149 150 150 152 154 153 149 149 143 143 153 155 162 168 169 172 175 171 171 174 175 189 202 209 206 206 209 210 211 227 233
88 88 66 96 103 118 105 99 137 153 152 155 160 161 161 162 163 163 164 161 159 158 158 158 157 150 142 144 151 148 167 160 158 172 171 168 173 176 171 174 205 220 209 199 203 213 214 231 234
52 72 72 276 130 140 109 146 163 157 156 160 164 165 166 168 170 169 167 163 160 157 158 164 159 148 147 147 142 140 163 163 168 168 167 171 182 184 171 180 226 232 204 184 198 210 206 242 239
35 97 189 275 184 136 113 160 174 167 159 164 168 169 168 169 171 173 174 168 163 160 158 159 151 155 161 159 156 151 168 176 177 160 159 173 177 177 174 195 232 204 144 175 208 190 195 222 240
199 167 213 213 206 129 130 166 171 173 163 167 170 172 172 173 179 178 174 170 163 161 159 157 153 162 164 157 148 127 119 223 157 158 169 173 176 176 168 189 207 159 139 178 197 213 226 221 229
182 169 231 235 187 125 145 162 180 178 169 172 175 178 181 185 181 172 171 170 164 161 161 161 156 167 161 151 157 164 192 204 170 163 173 177 183 184 158 159 164 175 179 220 216 216 239 249 202
164 164 212 253 187 143 149 167 189 187 184 183 182 183 183 182 176 175 174 171 170 172 170 165 164 173 174 173 174 168 167 174 170 155 174 200 203 195 176 169 209 223 211 251 247 215 209 249 187
249 182 189 178 60 60 103 10 229 214 195 191 187 183 181 182 181 180 179 180 175 177 177 176 175 176 179 172 149 127 82 51 47 47 280 272 215 213 217 204 191 229 213 239 255 222 199 226 251
250 223 185 152 111 211 134 196 256 216 208 199 195 188 187 186 183 183 185 183 183 187 181 175 176 177 177 164 157 157 158 170 193 199 218 285 252 230 244 209 208 223 226 248 262 233 206 188 230
222 219 169 128 118 100 28 149 264 213 214 210 198 192 189 187 185 186 187 186 186 181 176 175 171 173 171 164 167 163 163 170 165 149 119 338 326 318 311 317 273 261 247 250 271 285 211 188 202
170 60 37 46 74 69 227 168 255 221 211 210 203 197 191 189 187 187 184 174 172 172 171 169 169 173 169 164 163 163 162 156 142 129 128 344 320 313 337 26 322 287 288 272 266 283 255 215 214
105 93 41 7 10 248 240 173 243 236 214 199 196 197 191 186 181 178 173 170 171 170 172 169 167 170 167 163 164 167 165 157 156 157 155 149 316 333 328 335 309 301 309 323 335 16 351 276 245
179 141 155 181 214 269 301 218 257 251 214 184 178 182 179 180 180 179 177 174 172 171 171 167 167 168 166 167 169 167 160 155 159 158 156 166 189 257 343 23 26 15 13 11 17 31 8 38 32
158 176 166 141 157 168 284 285 322 3 119 146 162 163 173 177 176 174 173 172 171 170 171 168 164 164 164 165 160 157 156 154 151 147 139 136 121 89 55 57 47 24 24 20 41 41 27 41 45
162 158 103 121 148 196 271 257 224 224 185 162 166 170 169 168 164 165 166 169 171 170 164 156 158 162 161 162 164 159 153 151 142 128 117 103 84 69 69 60 53 44 36 37 51 48 34 52 44
147 121 116 126 150 153 194 259 221 199 190 181 185 175 164 164 164 163 165 165 159 152 149 150 152 151 152 153 146 140 136 133 125 118 113 106 84 79 79 74 68 57 46 42 51 52 49 56 45
172 171 144 145 198 157 159 252 240 200 190 176 178 172 162 161 158 157 157 151 148 148 148 150 150 150 152 148 139 136 128 122 120 116 105 95 86 77 78 77 70 65 57 49 57 61 55 59 54
Height
1501 1500 1500 1502 1505 1517 1522 1517 1510 1510 1514 1516 1514 1515 1519 1524 1530 1540 1538 1538 1538 1538 1538 1538 1538 1537 1537 1537 1537 1536 1536 1535 1535 1535 1535 1534 1535 1535 1536 1536 1536 1537 1538 1539 1540 1541 1542 1543 1544
1501 1501 1503 1504 1515 1532 1528 1516 1513 1514 1517 1517 1518 1520 1522 1529 1531 1534 1537 1539 1539 1539 1539 1539 1539 1539 1539 1539 1539 1539 1538 1538 1538 1538 1538 1537 1537 1538 1538 1539 1539 1540 1540 1541 1542 1543 1544 1545 1546
1502 1502 1504 1508 1520 1527 1525 1516 1514 1517 1518 1516 1520 1523 1526 1531 1534 1536 1538 1539 1540 1541 1541 1541 1541 1541 1541 1541 1541 1541 1541 1541 1541 1541 1541 1540 1540 1540 1541 1541 1542 1542 1543 1544 1545 1546 1547 1548 1549
1503 1504 1506 1514 1520 1513 1512 1513 1514 1517 1520 1520 1521 1526 1531 1534 1535 1537 1539 1541 1541 1542 1543 1543 1543 1543 1543 1543 1543 1543 1543 1543 1543 1543 1543 1543 1543 1543 1543 1544 1544 1545 1546 1546 1547 1548 1549 1550 1551
1503 1505 1512 1520 1516 1510 1509 1511 1512 1515 1519 1523 1523 1529 1534 1537 1537 1539 1541 1542 1543 1543 1544 1544 1545 1545 1545 1545 1545 1545 1545 1546 1546 1546 1546 1546 1546 1546 1546 1546 1547 1547 1548 1549 1550 1551 1551 1552 1553
1505 1507 1521 1526 1517 1512 1512 1512 1514 1518 1523 1526 1527 1531 1537 1539 1539 1541 1543 1544 1544 1545 1545 1546 1547 1547 1547 1547 1547 1547 1548 1548 1548 1548 1548 1548 1548 1548 1549 1549 1549 1549 1550 1551 1552 1553 1553 1554 1555
1505 1510 1520 1519 1518 1516 1513 1513 1514 1519 1523 1526 1527 1531 1538 1540 1541 1542 1544 1545 1546 1547 1547 1548 1548 1548 1549 1549 1549 1549 1550 1550 1550 1550 1550 1550 1550 1551 1551 1551 1551 1551 1552 1553 1554 1555 1555 1556 1557
1503 1509 1517 1517 1518 1517 1513 1513 1516 1518 1523 1528 1528 1530 1536 1540 1542 1544 1545 1547 1547 1548 1549 1549 1550 1550 1551 1551 1551 1551 1552 1552 1552 1552 1552 1552 1553 1553 1553 1553 1553 1553 1554 1555 1555 1556 1557 1558 1559
1502 1513 1522 1517 1515 1515 1512 1514 1519 1520 1523 1527 1528 1530 1535 1539 1542 1544 1546 1548 1549 1549 1550 1551 1551 1552 1552 1552 1553 1553 1553 1553 1553 1554 1554 1554 1554 1554 1554 1555 1555 1555 1555 1556 1557 1558 1558 1559 1560
1501 1516 1514 1506 1506 1509 1511 1514 1518 1523 1525 1528 1531 1534 1537 1540 1542 1544 1546 1547 1549 1550 1551 1552 1552 1553 1553 1554 1554 1554 1554 1555 1555 1555 1555 1556 1556 1556 1556 1556 1556 1556 1557 1557 1558 1558 1559 1560 1561
1499 1506 1504 1504 1504 1507 1511 1515 1517 1522 1527 1528 1530 1534 1538 1541 1543 1544 1546 1547 1549 1550 1551 1552 1553 1554 1554 1554 1555 1555 1555 1556 1556 1556 1556 1557 1556 1557 1557 1557 1557 1557 1557 1558 1558 1559 1560 1560 1561
1499 1501 1502 1504 1505 1508 1511 1515 1519 1521 1525 1528 1530 1533 1537 1541 1543 1544 1546 1547 1549 1550 1552 1553 1554 1554 1555 1555 1556 1556 1556 1556 1556 1557 1557 1557 1557 1557 1557 1557 1557 1557 1558 1558 1559 1559 1560 1560 1561
1501 1504 1504 1505 1507 1508 1511 1515 1519 1523 1527 1530 1533 1536 1538 1541 1543 1545 1547 1548 1549 1551 1552 1553 1554 1555 1555 1556 1556 1557 1557 1557 1557 1557 1557 1557 1557 1557 1557 1557 1557 1557 1557 1558 1559 1559 1560 1560 1561
1503 1503 1506 1507 1509 1511 1514 1519 1521 1527 1528 1532 1534 1536 1539 1541 1543 1545 1547 1548 1549 1551 1552 1553 1554 1555 1556 1556 1556 1557 1557 1557 1557 1557 1557 1557 1557 1557 1557 1557 1557 1557 1557 1558 1558 1559 1559 1560 1560
1503 1507 1509 1510 1510 1515 1516 1525 1524 1526 1529 1532 1535 1537 1539 1541 1543 1544 1546 1547 1549 1551 1552 1553 1554 1555 1556 1556 1556 1557 1557 1557 1557 1557 1557 1557 1557 1557 1557 1556 1557 1557 1557 1557 1557 1558 1558 1558 1559
1506 1514 1522 1514 1511 1515 1520 1535 1527 1528 1529 1532 1535 1537 1539 1541 1542 1544 1545 1547 1549 1550 1552 1553 1554 1555 1555 1556 1556 1556 1556 1556 1556 1556 1556 1556 1556 1556 1556 1556 1556 1555 1555 1556 1556 1556 1557 1557 1557
1518 1528 1527 1520 1512 1513 1520 1530 1527 1527 1529 1531 1534 1535 1537 1539 1542 1543 1544 1546 1548 1549 1551 1551 1553 1554 1555 1555 1555 1555 1555 1555 1555 1555 1555 1555 1555 1555 1555 1554 1554 1554 1554 1554 1554 1555 1555 1555 1555
1528 1527 1525 1522 1514 1513 1521 1525 1524 1526 1528 1530 1532 1534 1536 1537 1539 1542 1544 1545 1547 1548 1550 1551 1552 1553 1554 1554 1554 1554 1554 1554 1554 1554 1554 1554 1554 1553 1553 1553 1552 1552 1552 1553 1553 1553 1553 1552 1552
1513 1519 1523 1516 1510 1516 1522 1525 1524 1524 1527 1529 1530 1532 1534 1536 1538 1541 1542 1544 1546 1547 1548 1549 1550 1551 1552 1552 1553 1553 1553 1553 1553 1553 1553 1553 1553 1552 1552 1551 1551 1550 1550 1551 1551 1551 1551 1550 1550
1510 1518 1521 1515 1510 1517 1524 1526 1522 1522 1522 1524 1526 1528 1531 1534 1537 1539 1541 1542 1544 1546 1547 1548 1549 1550 1551 1552 1552 1552 1552 1552 1552 1552 1552 1552 1552 1551 1551 1550 1549 1549 1549 1549 1549 1548 1548 1548 1548
1511 1515 1517 1518 1515 1517 1524 1532 1527 1522 1522 1523 1524 1525 1528 1531 1533 1536 1538 1540 1542 1543 1545 1546 1548 1548 1549 1550 1551 1551 1552 1551 1551 1551 1551 1551 1550 1550 1550 1549 1548 1548 1547 1547 1546 1546 1545 1545 1545
1515 1503 1506 1512 1526 1537 1530 1551 1532 1523 1523 1522 1522 1523 1525 1528 1531 1533 1535 1537 1539 1541 1543 1545 1546 1547 1548 1549 1550 1550 1550 1550 1550 1550 1550 1550 1549 1549 1548 1548 1547 1546 1546 1545 1544 1544 1543 1543 1542
1504 1498 1502 1510 1524 1537 1535 1546 1536 1523 1524 1519 1518 1520 1521 1525 1527 1530 1532 1534 1537 1540 1542 1544 1545 1546 1547 1548 1549 1549 1549 1549 1549 1549 1549 1549 1548 1548 1547 1546 1545 1545 1544 1543 1542 1541 1541 1540 1540
1496 1503 1511 1520 1531 1549 1538 1542 1539 1524 1517 1513 1513 1515 1517 1521 1525 1527 1530 1533 1536 1538 1541 1542 1544 1545 1546 1547 1548 1548 1548 1549 1549 1549 1548 1548 1547 1547 1546 1545 1544 1543 1542 1541 1540 1539 1539 1538 1538
1499 1522 1545 1548 1557 1552 1533 1536 1532 1509 1504 1505 1508 1511 1514 1518 1522 1525 1528 1531 1534 1536 1538 1540 1542 1543 1545 1546 1546 1547 1548 1548 1548 1547 1547 1547 1547 1546 1546 1545 1543 1542 1541 1540 1539 1538 1536 1536 1536
1502 1516 1544 1556 1559 1550 1534 1536 1519 1501 1499 1501 1504 1508 1512 1516 1519 1522 1525 1528 1531 1534 1536 1538 1540 1542 1544 1545 1545 1546 1547 1547 1547 1547 1546 1546 1546 1545 1544 1543 1542 1541 1540 1539 1538 1536 1535 1535 1534
1502 1511 1513 1534 1542 1550 1543 1527 1512 1500 1500 1501 1505 1508 1511 1514 1517 1520 1523 1526 1529 1532 1534 1537 1539 1541 1542 1543 1544 1545 1546 1546 1546 1546 1546 1545 1545 1544 1544 1543 1541 1540 1539 1538 1537 1535 1534 1533 1533
1490 1499 1519 1534 1550 1556 1544 1534 1528 1511 1506 1503 1504 1506 1509 1512 1515 1518 1521 1525 1528 1531 1534 1536 1538 1540 1541 1543 1544 1544 1545 1545 1545 1545 1545 1544 1544 1544 1543 1542 1541 1539 1538 1537 1536 1534 1533 1532 1532
1493 1500 1513 1528 1534 1549 1553 1540 1506 1504 1501 1501 1502 1504 1506 1510 1512 1516 1520 1524 1527 1530 1533 1535 1537 1539 1541 1542 1543 1544 1544 1544 1544 1544 1544 1544 1543 1543 1542 1541 1540 1539 1537 1536 1535 1534 1533 1532 1531
1485 1494 1508 1525 1531 1537 1542 1533 1496 1496 1495 1497 1500 1502 1505 1508 1511 1515 1519 1522 1526 1529 1532 1534 1537 1538 1540 1541 1542 1543 1543 1544 1544 1543 1543 1543 1543 1542 1541 1540 1539 1538 1537 1536 1535 1534 1533 1532 1531